Regional Weather Roundup
Issued by NWS

Home | Current Version | Previous Version | Graphics & Text | Print | Product List | Glossary On
Versions: 1 2 3 4 5 6 7 8 9 10 11 12 13 14 15 16 17 18 19 20 21 22 23 24 25 26 27 28 29 30 31 32 33 34 35 36 37 38 39 40 41 42 43 44 45 46 47 48 49 50
231
ASUS43 KLOT 111603
RWRIL

ILLINOIS REGIONAL WEATHER ROUNDUP
NATIONAL WEATHER SERVICE CHICAGO/ROMEOVILLE IL
1000 AM CST THU FEB 11 2016

NOTE: "FAIR" INDICATES FEW OR NO CLOUDS BELOW 12,000 FEET WITH NO
SIGNIFICANT WEATHER AND/OR OBSTRUCTIONS TO VISIBILITY.

* THESE STATIONS ARE NOT UNDER NWS QUALITY CONTROL. THEY ALSO MAY NOT
  REPORT WEATHER SUCH AS PRECIPITATION OR FOG.

ILZ001-002-007-009-015-016-024-111700-
NORTHWEST ILLINOIS

CITY           SKY/WX    TMP DP  RH WIND       PRES   REMARKS
MOLINE         SUNNY     17   1  49 NE5       30.37R WCI  10
STERLING*      SUNNY     16   1  53 N6        30.32S WCI   7
$$

ILZ003-004-008-010-011-017-018-111700-
NORTH CENTRAL ILLINOIS

CITY           SKY/WX    TMP DP  RH WIND       PRES   REMARKS
ROCKFORD       SUNNY     14   1  56 N6        30.35R WCI   5
FREEPORT*      SUNNY     10   1  64 N6        30.35R WCI   1
ROCHELLE*      SUNNY     13   2  62 N7        30.34R WCI   3
DE KALB*       SUNNY     13   3  64 N8        30.32R WCI   2
$$

ILZ005-006-012>014-019>023-111700-
NORTHEAST ILLINOIS

CITY           SKY/WX    TMP DP  RH WIND       PRES   REMARKS
CHICAGO-OHARE  MOSUNNY   13   0  56 N9        30.32R WCI   1
CHICAGO-MIDWAY MOSUNNY   15   0  51 NW7       30.33R WCI   5
AURORA         SUNNY     15   3  59 N9        30.33R WCI   3
LANSING*       SUNNY     16   3  57 N7        30.32S WCI   6
WAUKEGAN       SUNNY     13   1  59 NW8       30.29S WCI   2
DUPAGE AIRPORT SUNNY     14   0  53 N8        30.31R WCI   3
WHEELING       SUNNY     12   0  58 NW7       30.33R WCI   1
MORRIS*        SUNNY     15   2  57 N6        30.33R WCI   6
NORTHERLY ISL    N/A     15   4  61 CALM        N/A
$$

LMZ740>746-111700-
SOUTHERN LAKE MICHIGAN

STATION/POSITION SKY/WX   TEMP    WIND        PRES    VSBY  WAVE
                          AIR SEA DIR/SP/G                  HT/PER
                          (F)     (DEG/KT/KT) (MB)    (MI)  (FT/S)
HARRISON CRIB              13     310/ 13/ 16   N/A
BURNHAM HARBOR             16     290/  6/  9   N/A
CALUMET HARBOR             13     300/  5/  9 1025.6R
MICHIGAN CITY              19     300/ 12/ 15   N/A
$$

ILZ025>027-034>036-040-047-049-050-058-095>099-111700-
WEST-CENTRAL ILLINOIS

CITY           SKY/WX    TMP DP  RH WIND       PRES   REMARKS
QUINCY         SUNNY     16   3  56 NE6       30.35R WCI   7
MACOMB*        SUNNY     17   6  62 NE6       30.38R WCI   8
$$

ILZ028>032-037-038-041>044-048-051>054-059>061-111700-
CENTRAL ILLINOIS

CITY           SKY/WX    TMP DP  RH WIND       PRES   REMARKS
BLOOMINGTON    SUNNY     17   3  54 VRB5      30.34R WCI  10
DECATUR        SUNNY     19   3  49 N5        30.35R WCI  12
PEORIA         SUNNY     18   1  47 W3        30.36R
LACON*         SUNNY     16   2  53 CALM      30.36R
LINCOLN*       SUNNY     19   6  58 CALM      30.36R
SPRINGFIELD    SUNNY     20   4  50 NE7       30.36R WCI  11
TAYLORVILLE    NOT AVBL
$$

ILZ033-039-045-046-055>057-062-063-111700-
EAST-CENTRAL ILLINOIS

CITY           SKY/WX    TMP DP  RH WIND       PRES   REMARKS
CHAMPAIGN      SUNNY     18   3  52 N9        30.33R WCI   7
MATTOON        SUNNY     16   2  54 NE9       30.33R WCI   4
$$

ILZ079-100>102-111700-
SOUTHWEST ILLINOIS

CITY           SKY/WX    TMP DP  RH WIND       PRES   REMARKS
BELLEVILLE     CLOUDY    24  10  56 NE9       30.34R WCI  14
CAHOKIA*       CLOUDY    25  13  60 N7        30.35S WCI  17
SPARTA*        CLOUDY    23  17  77 NE6       30.34S WCI  15
$$

ILZ064>066-069>071-074>076-080>082-084>086-088>090-092>094-111700-
SOUTH-CENTRAL ILLINOIS

CITY           SKY/WX    TMP DP  RH WIND       PRES   REMARKS
CARBONDALE     SUNNY     26  17  68 NE6       30.32R WCI  19
CAIRO*         SUNNY     30  26  85 NE13      30.30R WCI  20
MARION         PTSUNNY   27  19  74 N9        30.33R WCI  17
MT. VERNON     CLOUDY    23  14  68 NE8       30.33R WCI  14
CENTRALIA*     CLOUDY    24  15  69 NE6       30.33R WCI  16
SALEM*         CLOUDY    23  10  56 N7        30.33S WCI  15
$$

ILZ067-068-072-073-078-083-087-091-111700-
SOUTHEAST ILLINOIS

CITY           SKY/WX    TMP DP  RH WIND       PRES   REMARKS
LAWRENCEVILLE  SUNNY     23   9  55 NE5       30.34R WCI  17
HARRISBURG*    CLOUDY    26  19  77 NE8       30.34R WCI  17
ROBINSON*      SUNNY     20   7  56 N3        30.36R
CARMI*         CLOUDY    24  18  77 NE7       30.33R WCI  16
$$

ABBREVIATIONS USED IN REMARKS
   TC - TEMPERATURE IN CELSIUS
  WCI - WIND CHILL INDEX
   HX - HEAT INDEX
  VSB - VISIBILITY
$$





USA.gov is the U.S. government's official web portal to all federal, state and local government web resources and services.